IW1PPB-3 Loano IT current weather conditions

sailwx.info

Wind from 138

Air temperature 26.7° C
Dewpoint 21.2° C

Last reported at 2020-Aug-14 07:23 UTC.
Time now 2020-Aug-14 11:30 UTC

Location: N 44°07' E 008°15'.
View on Google Maps.

See reports from other nearby stations

  
Tides and Currents Weather Stations Pressure Air Temp Water Temp Dewpoint Dewpoint Depression Visibility Wind Speed Wind Dir Waves Ship Positions
date/time (UTC)wind fromknots sea level pressurealtimeterstation pressurevisibilityair tempwater tempwave heightnotes
2020-Aug-14 07:23 138 26.7
2020-Aug-14 07:13 184 26.7
2020-Aug-14 07:03 145 27.2
2020-Aug-14 06:53 282 26.7
2020-Aug-14 06:43 281 26.1
2020-Aug-14 06:33 283 25.6
2020-Aug-14 06:23 269 25.6
2020-Aug-14 06:13 275 25.0
2020-Aug-14 06:03 275 24.4
2020-Aug-14 05:53 360 24.4
2020-Aug-14 05:43 360 23.9
2020-Aug-14 05:33 360 23.9
2020-Aug-14 05:23 360 23.9
2020-Aug-14 05:13 360 23.3
2020-Aug-14 05:03 360 23.3
2020-Aug-14 04:53 360 23.3
2020-Aug-14 04:43 360 23.3
2020-Aug-14 04:33 360 23.3
2020-Aug-14 04:23 360 23.3
2020-Aug-14 04:13 360 23.3
2020-Aug-14 04:03 360 23.9
2020-Aug-14 03:53 360 23.9
2020-Aug-14 03:43 360 23.9
2020-Aug-14 03:33 360 23.3
2020-Aug-14 03:23 360 23.3
2020-Aug-14 03:13 360 23.3
2020-Aug-14 03:03 360 23.3
2020-Aug-14 02:53 360 23.3
2020-Aug-14 02:43 360 23.9
2020-Aug-14 02:33 360 23.3
2020-Aug-14 02:23 360 23.3
2020-Aug-14 02:13 360 23.3
2020-Aug-14 02:03 360 23.9
2020-Aug-14 01:53 360 23.9
2020-Aug-14 01:43 360 23.9
2020-Aug-14 01:33 360 23.9
2020-Aug-14 01:23 360 23.9
2020-Aug-14 01:13 360 23.9
2020-Aug-14 01:03 360 23.9
2020-Aug-14 00:53 360 23.9
2020-Aug-14 00:43 360 23.9
2020-Aug-14 00:23 360 23.9
2020-Aug-14 00:13 360 23.9
2020-Aug-14 00:03 360 24.4
2020-Aug-13 23:03 360 24.4
2020-Aug-13 22:53 360 24.4
2020-Aug-13 22:43 360 24.4
2020-Aug-13 22:33 360 24.4
2020-Aug-13 22:23 360 24.4
2020-Aug-13 22:13 360 24.4
2020-Aug-13 22:03 360 24.4
2020-Aug-13 21:53 360 24.4
2020-Aug-13 21:43 360 24.4
2020-Aug-13 21:33 360 25.0
2020-Aug-13 21:30 360 25.0
2020-Aug-13 21:23 360 25.0
2020-Aug-13 21:13 360 25.0
2020-Aug-13 21:03 360 25.0
2020-Aug-13 20:53 360 25.0
2020-Aug-13 20:43 360 25.0
2020-Aug-13 20:33 360 25.0
2020-Aug-13 20:23 360 25.0
2020-Aug-13 20:13 360 25.0
2020-Aug-13 20:10 360 25.0
2020-Aug-13 20:03 360 25.0
2020-Aug-13 19:53 360 25.6
2020-Aug-13 19:50 360 25.6
2020-Aug-13 19:43 360 25.6
2020-Aug-13 19:40 360 25.6
2020-Aug-13 19:33 360 25.6
2020-Aug-13 19:30 360 25.6
2020-Aug-13 19:24 360 25.6
2020-Aug-13 19:20 360 25.6
2020-Aug-13 19:13 360 25.6
2020-Aug-13 19:10 360 26.1
2020-Aug-13 19:03 360 26.1
2020-Aug-13 19:00 360 26.1
2020-Aug-13 18:53 360 26.1
2020-Aug-13 18:50 360 26.7
2020-Aug-13 18:43 360 26.7
2020-Aug-13 18:40 360 26.7
2020-Aug-13 18:33 360 26.7
2020-Aug-13 18:30 360 26.7
2020-Aug-13 18:23 360 26.7
2020-Aug-13 18:20 360 26.7
2020-Aug-13 18:13 360 26.7
2020-Aug-13 18:10 360 26.7
2020-Aug-13 18:03 360 26.7
2020-Aug-13 18:00 360 26.7
2020-Aug-13 17:53 360 26.7
2020-Aug-13 17:49 360 26.7
2020-Aug-13 17:43 360 26.7
2020-Aug-13 17:39 360 26.7
2020-Aug-13 17:33 360 26.7
2020-Aug-13 17:29 360 26.7
2020-Aug-13 17:23 360 26.7
2020-Aug-13 17:19 360 26.7
2020-Aug-13 17:13 360 27.2
2020-Aug-13 17:09 360 26.7
2020-Aug-13 17:03 360 27.2
2020-Aug-13 16:59 360 26.7
2020-Aug-13 16:53 360 26.7
2020-Aug-13 16:49 360 26.7
2020-Aug-13 16:43 360 26.7
2020-Aug-13 16:39 360 26.7
2020-Aug-13 16:33 360 26.7
2020-Aug-13 16:29 360 27.2
2020-Aug-13 16:23 360 27.2
2020-Aug-13 16:19 360 27.2
2020-Aug-13 16:13 141 27.2
2020-Aug-13 16:09 148 27.2
2020-Aug-13 16:03 103 27.8
2020-Aug-13 15:59 146 28.3
2020-Aug-13 15:53 155 28.3
2020-Aug-13 15:49 134 28.3
2020-Aug-13 15:43 127 28.3
2020-Aug-13 15:39 144 28.3
2020-Aug-13 15:33 129 28.3
2020-Aug-13 15:29 113 28.3
2020-Aug-13 15:23 134 28.3
2020-Aug-13 15:19 132 28.3
2020-Aug-13 15:13 130 28.3
2020-Aug-13 15:09 071 28.9
2020-Aug-13 15:03 128 28.9
2020-Aug-13 14:59 128 28.9
2020-Aug-13 14:53 156 28.3
2020-Aug-13 14:49 119 28.3
2020-Aug-13 14:43 100 27.8
2020-Aug-13 14:39 146 28.3
2020-Aug-13 14:33 134 28.3
2020-Aug-13 14:29 117 28.3
2020-Aug-13 14:23 148 28.3
2020-Aug-13 14:19 130 28.9
2020-Aug-13 14:13 144 28.9
2020-Aug-13 14:09 138 28.9
2020-Aug-13 14:03 123 28.9
2020-Aug-13 13:59 126 28.3
2020-Aug-13 13:53 146 28.3
2020-Aug-13 13:49 058 28.3
2020-Aug-13 13:43 081 28.3
2020-Aug-13 13:39 098 28.3
2020-Aug-13 13:33 109 28.3
2020-Aug-13 13:29 077 27.8
2020-Aug-13 13:23 042 27.8
2020-Aug-13 13:19 057 27.8
2020-Aug-13 13:13 049 27.8
2020-Aug-13 13:09 049 27.8
2020-Aug-13 13:03 084 28.3
2020-Aug-13 12:59 105 0 gusting 3 28.3
2020-Aug-13 12:53 076 28.3
2020-Aug-13 12:49 036 28.3
2020-Aug-13 12:43 147 28.3
2020-Aug-13 12:39 110 28.3
2020-Aug-13 12:33 023 27.8
2020-Aug-13 12:29 139 27.8
2020-Aug-13 12:23 140 27.8
2020-Aug-13 12:19 151 27.8
2020-Aug-13 12:13 150 27.8
2020-Aug-13 12:09 125 27.8
2020-Aug-13 12:03 105 27.8
2020-Aug-13 11:59 146 27.8
2020-Aug-13 11:53 136 27.8
2020-Aug-13 11:49 081 27.2
2020-Aug-13 11:43 068 27.2
2020-Aug-13 11:39 052 27.8
2020-Aug-13 11:33 096 27.8
2020-Aug-13 11:29 075 1 gusting 3 27.8
2020-Aug-13 11:23 140 27.8
2020-Aug-13 11:19 111 27.2
2020-Aug-13 11:13 092 27.8
2020-Aug-13 11:09 072 27.8
2020-Aug-13 11:03 053 28.3
2020-Aug-13 10:59 051 28.3
2020-Aug-13 10:53 069 0 gusting 7 28.3
2020-Aug-13 10:49 111 0 gusting 3 28.3
2020-Aug-13 10:43 136 27.8
2020-Aug-13 10:39 094 27.8
2020-Aug-13 10:33 122 27.8
2020-Aug-13 10:29 076 27.2
2020-Aug-13 10:23 086 27.2
2020-Aug-13 10:19 146 27.2
2020-Aug-13 10:13 121 27.2
2020-Aug-13 10:09 078 3 gusting 6 27.2
2020-Aug-13 10:03 117 27.2
2020-Aug-13 09:59 127 27.2
2020-Aug-13 09:53 086 27.2
2020-Aug-13 09:49 032 26.7
2020-Aug-13 09:43 081 26.7
2020-Aug-13 09:39 111 26.7
2020-Aug-13 09:33 076 26.7
2020-Aug-13 09:29 068 27.2
2020-Aug-13 09:23 098 27.2
2020-Aug-13 09:19 049 27.2
2020-Aug-13 09:13 140 27.2
2020-Aug-13 09:09 090 27.2
2020-Aug-13 09:03 144 27.2
2020-Aug-13 08:59 121 27.2
2020-Aug-13 08:53 132 27.2
2020-Aug-13 08:49 061 26.7
2020-Aug-13 08:43 099 27.2
2020-Aug-13 08:39 145 27.2
2020-Aug-13 08:33 105 27.2
2020-Aug-13 08:29 129 27.2
2020-Aug-13 08:23 127 27.2
2020-Aug-13 08:19 107 27.8
2020-Aug-13 08:13 154 27.8
2020-Aug-13 08:09 154 27.2
2020-Aug-13 08:03 147 27.2
2020-Aug-13 07:59 154 26.7
2020-Aug-13 07:53 136 26.7
2020-Aug-13 07:49 136 26.1
2020-Aug-13 07:43 136 26.1
2020-Aug-13 07:38 136 26.1
2020-Aug-13 07:33 144 26.1
2020-Aug-13 07:28 292 26.1
2020-Aug-13 07:23 294 26.1
2020-Aug-13 07:18 360 26.1
2020-Aug-13 07:13 360 26.1
2020-Aug-13 07:08 360 25.6
2020-Aug-13 07:03 360 25.6
2020-Aug-13 06:58 360 25.6
2020-Aug-13 06:53 360 25.6
2020-Aug-13 06:48 25.6
2020-Aug-13 06:43 360 25.6
2020-Aug-13 06:38 360 25.6
2020-Aug-13 06:33 306 25.6
2020-Aug-13 06:28 305 25.6
2020-Aug-13 06:23 305 25.0
2020-Aug-13 06:18 305 25.0
2020-Aug-13 06:13 305 25.0
2020-Aug-13 06:08 305 24.4
2020-Aug-13 06:03 304 24.4
2020-Aug-13 05:59 360 24.4
2020-Aug-13 05:53 360 24.4
2020-Aug-13 05:48 360 23.9
2020-Aug-13 05:43 360 23.9
2020-Aug-13 05:38 360 23.9
2020-Aug-13 05:33 360 23.9
2020-Aug-13 05:28 360 23.9
2020-Aug-13 05:23 360 23.9
2020-Aug-13 05:18 360 24.4
2020-Aug-13 05:13 360 24.4
2020-Aug-13 05:08 360 24.4
2020-Aug-13 05:03 360 24.4
2020-Aug-13 04:58 360 24.4
2020-Aug-13 04:53 360 24.4
2020-Aug-13 04:48 360 24.4
2020-Aug-13 04:43 360 24.4
2020-Aug-13 04:38 360 24.4
2020-Aug-13 04:33 360 24.4
2020-Aug-13 04:28 360 24.4
2020-Aug-13 04:23 360 24.4
2020-Aug-13 04:18 360 24.4
2020-Aug-13 04:13 360 24.4
2020-Aug-13 04:08 360 24.4
2020-Aug-13 04:03 360 24.4
2020-Aug-13 03:58 360 24.4
2020-Aug-13 03:53 360 24.4
2020-Aug-13 03:48 360 24.4
2020-Aug-13 03:43 360 24.4
2020-Aug-13 03:38 360 24.4
2020-Aug-13 03:33 360 24.4
2020-Aug-13 03:28 360 24.4
2020-Aug-13 03:23 360 24.4
2020-Aug-13 03:18 360 24.4
2020-Aug-13 03:13 360 24.4
2020-Aug-13 03:08 360 24.4
2020-Aug-13 03:03 360 24.4
2020-Aug-13 02:58 360 24.4
2020-Aug-13 02:53 360 24.4
2020-Aug-13 02:48 360 24.4
2020-Aug-13 02:43 360 24.4
2020-Aug-13 02:38 360 24.4
2020-Aug-13 02:33 360 24.4
2020-Aug-13 02:28 360 24.4
2020-Aug-13 02:23 360 24.4
2020-Aug-13 02:18 360 24.4
2020-Aug-13 02:13 360 24.4
2020-Aug-13 02:08 360 24.4
2020-Aug-13 02:03 360 24.4
2020-Aug-13 01:58 360 24.4
2020-Aug-13 01:53 360 24.4
2020-Aug-13 01:48 360 24.4
2020-Aug-13 01:43 360 24.4
2020-Aug-13 01:38 360 24.4
2020-Aug-13 01:33 360 24.4
2020-Aug-13 01:28 360 24.4
2020-Aug-13 01:23 360 25.0
2020-Aug-13 01:18 360 25.0
2020-Aug-13 01:13 360 25.0
2020-Aug-13 01:08 360 25.0
2020-Aug-13 01:03 360 25.0
2020-Aug-13 00:58 360 25.0
2020-Aug-13 00:53 360 25.0
2020-Aug-13 00:48 360 25.0
2020-Aug-13 00:43 360 24.4
2020-Aug-13 00:38 360 25.0
2020-Aug-13 00:33 360 24.4
2020-Aug-13 00:28 360 24.4
2020-Aug-13 00:23 360 24.4
2020-Aug-13 00:18 360 25.0
2020-Aug-13 00:13 360 25.0
2020-Aug-13 00:08 360 25.0
2020-Aug-13 00:03 360 25.0
2020-Aug-12 23:58 360 25.0
2020-Aug-12 23:53 360 25.0
2020-Aug-12 23:48 360 25.0
2020-Aug-12 23:43 360 25.0
2020-Aug-12 23:38 360 25.0
2020-Aug-12 23:33 360 25.0
2020-Aug-12 23:28 360 25.0
2020-Aug-12 23:23 360 25.0
2020-Aug-12 23:18 360 25.0
2020-Aug-12 23:13 360 25.0
2020-Aug-12 23:08 360 25.6
2020-Aug-12 23:03 360 25.6
2020-Aug-12 22:58 360 25.0
2020-Aug-12 22:53 360 25.0
2020-Aug-12 22:47 360 25.0
2020-Aug-12 22:43 360 25.0
2020-Aug-12 22:37 360 25.0
2020-Aug-12 22:33 360 25.0
2020-Aug-12 22:28 360 25.6
2020-Aug-12 22:23 360 25.6
2020-Aug-12 22:17 360 25.6
2020-Aug-12 22:13 360 25.0
2020-Aug-12 22:07 360 25.6
2020-Aug-12 22:03 360 25.6
2020-Aug-12 21:57 360 25.6
2020-Aug-12 21:53 360 25.6
2020-Aug-12 21:47 360 25.6
2020-Aug-12 21:43 360 25.6
2020-Aug-12 21:37 360 25.6
2020-Aug-12 21:33 360 25.6
2020-Aug-12 21:27 360 25.6
2020-Aug-12 21:23 360 25.6
2020-Aug-12 21:17 360 25.6
2020-Aug-12 21:13 360 25.6
2020-Aug-12 21:07 360 25.6
2020-Aug-12 21:03 360 25.6
2020-Aug-12 20:57 360 25.6
2020-Aug-12 20:53 360 25.6
2020-Aug-12 20:47 360 26.1
2020-Aug-12 20:43 360 26.1
2020-Aug-12 20:37 360 26.1
2020-Aug-12 20:33 360 26.1
2020-Aug-12 20:27 360 26.1
2020-Aug-12 20:23 360 26.1
2020-Aug-12 20:17 360 26.1
2020-Aug-12 20:13 360 26.1
2020-Aug-12 20:07 360 26.1
2020-Aug-12 20:03 360 26.1
2020-Aug-12 19:57 360 26.1
2020-Aug-12 19:53 360 26.1
2020-Aug-12 19:47 26.1
2020-Aug-12 19:43 360 26.1
2020-Aug-12 19:37 360 26.1
2020-Aug-12 19:33 360 26.1
2020-Aug-12 19:27 360 26.7
2020-Aug-12 19:23 360 26.7
2020-Aug-12 19:17 360 26.7
2020-Aug-12 19:13 360 26.7
2020-Aug-12 19:07 360 26.7
2020-Aug-12 19:03 360 26.7
2020-Aug-12 18:57 360 26.7
2020-Aug-12 18:53 360 26.7
2020-Aug-12 18:47 360 26.7
2020-Aug-12 18:43 360 26.7
2020-Aug-12 18:37 360 27.2
2020-Aug-12 18:33 360 27.2
2020-Aug-12 18:27 360 27.2
2020-Aug-12 18:23 360 27.2
2020-Aug-12 18:17 360 27.2
2020-Aug-12 18:13 360 27.2
2020-Aug-12 18:07 360 27.2
2020-Aug-12 18:03 360 27.2
2020-Aug-12 17:57 360 27.2
2020-Aug-12 17:53 360 27.2
2020-Aug-12 17:47 360 27.2
2020-Aug-12 17:43 360 27.2
2020-Aug-12 17:37 360 27.2
2020-Aug-12 17:33 360 27.2
2020-Aug-12 17:27 360 27.2
2020-Aug-12 17:23 360 27.2
2020-Aug-12 17:17 164 27.8
2020-Aug-12 17:13 150 27.8
2020-Aug-12 17:07 148 27.8
2020-Aug-12 17:03 150 27.8
2020-Aug-12 16:57 145 27.8
2020-Aug-12 16:53 179 27.8
2020-Aug-12 16:47 182 27.8
2020-Aug-12 16:43 182 27.8
2020-Aug-12 16:37 182 28.3
2020-Aug-12 16:33 182 28.3
2020-Aug-12 16:27 125 28.3
2020-Aug-12 16:23 145 28.3
2020-Aug-12 16:17 126 28.3
2020-Aug-12 16:13 148 28.3
2020-Aug-12 16:07 177 28.3
2020-Aug-12 16:03 153 28.3
2020-Aug-12 15:57 177 28.3
2020-Aug-12 15:53 189 28.3
2020-Aug-12 15:47 191 28.3
2020-Aug-12 15:43 160 28.3
2020-Aug-12 15:37 153 28.3
2020-Aug-12 15:33 118 28.3
2020-Aug-12 15:27 158 28.3
2020-Aug-12 15:23 140 28.3
2020-Aug-12 15:17 178 28.3
2020-Aug-12 15:13 194 28.3
2020-Aug-12 15:07 185 28.3
2020-Aug-12 15:03 140 28.3
2020-Aug-12 14:57 158 28.3
2020-Aug-12 14:53 158 28.3
2020-Aug-12 14:47 151 28.3
2020-Aug-12 14:43 156 28.3
2020-Aug-12 14:37 170 28.3
2020-Aug-12 14:33 177 28.9
2020-Aug-12 14:27 195 28.3
2020-Aug-12 14:23 203 28.3
2020-Aug-12 14:17 166 28.3
2020-Aug-12 14:13 171 28.3
2020-Aug-12 14:07 160 28.3
2020-Aug-12 14:03 132 28.3
2020-Aug-12 13:57 151 28.9
2020-Aug-12 13:53 152 28.9
2020-Aug-12 13:47 179 28.3
2020-Aug-12 13:43 192 28.3
2020-Aug-12 13:36 191 28.3
2020-Aug-12 13:33 153 28.3
2020-Aug-12 13:26 142 28.3
2020-Aug-12 13:23 188 28.3
2020-Aug-12 13:16 132 28.3
2020-Aug-12 13:13 128 28.3
2020-Aug-12 13:06 150 27.8
2020-Aug-12 13:03 148 27.8
2020-Aug-12 12:56 121 27.8
2020-Aug-12 12:53 137 28.3
2020-Aug-12 12:46 115 28.3
2020-Aug-12 12:43 166 28.3
2020-Aug-12 12:36 142 28.3
2020-Aug-12 12:33 201 28.3
2020-Aug-12 12:26 211 0 gusting 2 27.8
2020-Aug-12 12:23 183 27.8
2020-Aug-12 12:16 151 27.8
2020-Aug-12 12:13 131 27.8
2020-Aug-12 12:06 122 27.8
2020-Aug-12 12:03 134 2 gusting 2 27.8
2020-Aug-12 11:56 143 27.8
2020-Aug-12 11:53 096 27.8
2020-Aug-12 11:46 155 27.8
2020-Aug-12 11:43 127 27.8
2020-Aug-12 11:36 123 0 gusting 6 27.8
2020-Aug-12 11:33 153 27.8
2020-Aug-12 11:26 114 27.8
2020-Aug-12 11:23 134 27.8
2020-Aug-12 11:16 154 27.8
2020-Aug-12 11:13 146 27.8
2020-Aug-12 11:06 125 27.8
2020-Aug-12 11:03 142 27.8